TimeCDT,TemperatureF,Dew PointF,Humidity,Sea Level PressureIn,VisibilityMPH,Wind Direction,Wind SpeedMPH,Gust SpeedMPH,PrecipitationIn,Events,Conditions,WindDirDegrees,DateUTC
12:15 AM,72.1,68.7,89,30.26,10.0,Calm,Calm,-,N/A,,Clear,0,2013-07-17 05:15:00
12:35 AM,72.3,68.7,88,30.26,10.0,Calm,Calm,-,N/A,,Clear,0,2013-07-17 05:35:00
12:55 AM,71.6,68.4,89,30.26,10.0,Calm,Calm,-,N/A,,Clear,0,2013-07-17 05:55:00
1:15 AM,71.4,68.9,92,30.26,10.0,Calm,Calm,-,N/A,,Clear,0,2013-07-17 06:15:00
1:35 AM,71.6,68.9,91,30.26,10.0,Calm,Calm,-,N/A,,Clear,0,2013-07-17 06:35:00
1:55 AM,71.8,69.1,91,30.26,10.0,Calm,Calm,-,N/A,,Clear,0,2013-07-17 06:55:00
2:15 AM,72.3,69.3,90,30.26,10.0,Calm,Calm,-,N/A,,Clear,0,2013-07-17 07:15:00
2:35 AM,70.9,68.4,92,30.26,7.0,Calm,Calm,-,N/A,,Clear,0,2013-07-17 07:35:00
2:55 AM,70.2,68.0,93,30.26,7.0,Calm,Calm,-,N/A,,Clear,0,2013-07-17 07:55:00
3:15 AM,69.1,67.1,93,30.26,5.0,Calm,Calm,-,N/A,,Clear,0,2013-07-17 08:15:00
3:35 AM,68.4,66.7,95,30.26,4.0,Calm,Calm,-,N/A,,Clear,0,2013-07-17 08:35:00
3:55 AM,68.5,66.9,95,30.27,2.5,Calm,Calm,-,N/A,,Scattered Clouds,0,2013-07-17 08:55:00
4:15 AM,67.3,65.8,95,30.27,2.5,Calm,Calm,-,N/A,,Scattered Clouds,0,2013-07-17 09:15:00
4:35 AM,67.5,66.2,96,30.27,1.8,Calm,Calm,-,N/A,,Mist,0,2013-07-17 09:35:00
4:55 AM,65.3,63.7,94,30.27,1.0,Calm,Calm,-,N/A,,Mist,0,2013-07-17 09:55:00
5:15 AM,66.0,64.8,96,30.27,1.8,Calm,Calm,-,N/A,,Mist,0,2013-07-17 10:15:00
5:35 AM,65.5,64.0,95,30.28,2.0,Calm,Calm,-,N/A,,Scattered Clouds,0,2013-07-17 10:35:00
5:55 AM,64.9,63.7,96,30.28,3.0,Calm,Calm,-,N/A,,Scattered Clouds,0,2013-07-17 10:55:00
6:15 AM,66.7,65.5,96,30.28,3.0,Calm,Calm,-,N/A,,Clear,0,2013-07-17 11:15:00
6:35 AM,70.3,69.1,96,30.28,5.0,Calm,Calm,-,N/A,,Clear,0,2013-07-17 11:35:00
6:55 AM,71.8,70.3,95,30.28,10.0,Calm,Calm,-,N/A,,Clear,0,2013-07-17 11:55:00
7:15 AM,73.0,70.3,91,30.28,10.0,Calm,Calm,-,N/A,,Clear,0,2013-07-17 12:15:00
7:35 AM,74.8,70.2,85,30.29,10.0,WSW,4.6,-,N/A,,Clear,250,2013-07-17 12:35:00
7:55 AM,76.5,70.2,81,30.29,10.0,West,4.6,-,N/A,,Clear,280,2013-07-17 12:55:00
8:15 AM,77.9,69.6,76,30.29,10.0,West,6.9,-,N/A,,Clear,260,2013-07-17 13:15:00
8:35 AM,79.2,69.6,72,30.29,10.0,West,4.6,-,N/A,,Clear,280,2013-07-17 13:35:00
8:55 AM,80.4,68.4,67,30.29,10.0,West,6.9,-,N/A,,Clear,270,2013-07-17 13:55:00
9:15 AM,81.1,68.0,64,30.29,10.0,West,8.1,-,N/A,,Clear,260,2013-07-17 14:15:00
9:35 AM,82.0,67.5,61,30.29,10.0,West,8.1,-,N/A,,Clear,280,2013-07-17 14:35:00
9:55 AM,83.3,67.3,58,30.29,10.0,West,8.1,-,N/A,,Scattered Clouds,260,2013-07-17 14:55:00
10:15 AM,83.3,67.8,59,30.28,10.0,West,5.8,-,N/A,,Scattered Clouds,260,2013-07-17 15:15:00
10:35 AM,82.9,67.1,59,30.28,10.0,West,6.9,-,N/A,,Scattered Clouds,280,2013-07-17 15:35:00
11:15 AM,83.3,65.7,55,30.28,10.0,WNW,9.2,-,N/A,,Scattered Clouds,290,2013-07-17 16:15:00
11:35 AM,84.7,65.8,53,30.28,10.0,WSW,5.8,-,N/A,,Scattered Clouds,250,2013-07-17 16:35:00
12:15 PM,85.1,65.1,51,30.28,10.0,West,8.1,-,N/A,,Scattered Clouds,260,2013-07-17 17:15:00
12:35 PM,85.6,64.9,50,30.27,10.0,WSW,6.9,-,N/A,,Scattered Clouds,250,2013-07-17 17:35:00
12:55 PM,86.4,64.9,49,30.26,10.0,WSW,6.9,-,N/A,,Mostly Cloudy,250,2013-07-17 17:55:00
1:35 PM,86.5,64.6,48,30.26,10.0,West,9.2,-,N/A,,Scattered Clouds,260,2013-07-17 18:35:00
2:35 PM,88.0,64.9,46,30.23,10.0,WSW,6.9,-,N/A,,Mostly Cloudy,250,2013-07-17 19:35:00
2:55 PM,86.2,65.7,50,30.23,10.0,West,4.6,-,N/A,,Mostly Cloudy,260,2013-07-17 19:55:00
3:15 PM,86.4,65.1,49,30.23,10.0,WSW,5.8,-,N/A,,Scattered Clouds,240,2013-07-17 20:15:00
3:35 PM,87.1,65.7,49,30.22,10.0,SW,6.9,-,N/A,,Mostly Cloudy,230,2013-07-17 20:35:00
3:55 PM,86.9,64.9,48,30.22,10.0,West,6.9,-,N/A,,Scattered Clouds,260,2013-07-17 20:55:00
4:15 PM,84.7,65.3,52,30.21,10.0,WSW,8.1,-,N/A,,Scattered Clouds,250,2013-07-17 21:15:00
4:35 PM,86.0,66.2,51,30.21,10.0,West,9.2,-,N/A,,Mostly Cloudy,260,2013-07-17 21:35:00
4:55 PM,86.9,66.0,50,30.21,10.0,WSW,4.6,-,N/A,,Mostly Cloudy,240,2013-07-17 21:55:00
5:15 PM,84.7,65.7,53,30.21,10.0,West,5.8,-,N/A,,Scattered Clouds,260,2013-07-17 22:15:00
5:35 PM,86.0,66.0,51,30.20,10.0,WSW,5.8,-,N/A,,Scattered Clouds,250,2013-07-17 22:35:00
5:55 PM,86.0,66.6,52,30.19,10.0,West,5.8,-,N/A,,Scattered Clouds,260,2013-07-17 22:55:00
6:15 PM,85.1,66.4,53,30.19,10.0,WSW,4.6,-,N/A,,Clear,250,2013-07-17 23:15:00
6:35 PM,84.2,66.2,55,30.18,10.0,West,6.9,-,N/A,,Scattered Clouds,260,2013-07-17 23:35:00
6:55 PM,84.2,66.2,55,30.18,10.0,WSW,4.6,-,N/A,,Scattered Clouds,250,2013-07-17 23:55:00
7:15 PM,83.7,66.9,57,30.18,10.0,WSW,3.5,-,N/A,,Clear,240,2013-07-18 00:15:00
7:35 PM,82.8,66.6,58,30.18,10.0,WSW,3.5,-,N/A,,Clear,250,2013-07-18 00:35:00
7:55 PM,81.5,67.5,62,30.18,10.0,Calm,Calm,-,N/A,,Clear,0,2013-07-18 00:55:00
8:15 PM,80.2,66.7,63,30.18,10.0,Calm,Calm,-,N/A,,Clear,0,2013-07-18 01:15:00
8:35 PM,78.8,66.7,66,30.18,10.0,Calm,Calm,-,N/A,,Clear,0,2013-07-18 01:35:00
8:55 PM,74.7,67.6,79,30.19,7.0,Calm,Calm,-,N/A,,Clear,0,2013-07-18 01:55:00
9:15 PM,74.1,67.8,81,30.19,10.0,Calm,Calm,-,N/A,,Clear,0,2013-07-18 02:15:00
9:35 PM,74.7,67.5,78,30.18,10.0,Calm,Calm,-,N/A,,Clear,0,2013-07-18 02:35:00
9:55 PM,73.4,67.1,81,30.18,10.0,Calm,Calm,-,N/A,,Clear,0,2013-07-18 02:55:00
10:15 PM,72.0,66.7,84,30.18,10.0,Calm,Calm,-,N/A,,Clear,0,2013-07-18 03:15:00
10:35 PM,73.8,66.9,79,30.18,10.0,Calm,Calm,-,N/A,,Clear,0,2013-07-18 03:35:00
10:55 PM,73.9,66.7,78,30.18,10.0,Calm,Calm,-,N/A,,Clear,0,2013-07-18 03:55:00
11:35 PM,71.6,66.6,84,30.17,10.0,Calm,Calm,-,N/A,,Clear,0,2013-07-18 04:35:00
11:55 PM,72.3,66.7,83,30.17,10.0,Calm,Calm,-,N/A,,Clear,0,2013-07-18 04:55:00